[[{"header":{"parameterUnit":"m.s-1","parameterCategory":1,"la1":30.2991,"la2":30.254,"lo1":-89.0895,"lo2":-89.0444,"dy":0.0017,"dx":0.0017,"nx":28,"ny":28,"refTime":"2023-10-27T03:00:00:Z","depth":0,"parameterNumber":2,"parameterNumberName":"U-component_of_WINDS"},"data":[0,0,0,0,0,0,0,0,0,0,0,0,0,0,0,0,0,0,0,0,0,0,0,0,0,0,0,0,0,0,0,0,0,0,0,0,0,0,0,0,0,0,0,0,0,0,0,0,0,0,0,0,0,0,0,0,0,0,-3.2842,-3.2843,0,-3.291,-3.2911,-3.2912,-3.2827,-3.2824,-3.2821,-3.2818,-3.2889,-3.2893,-3.2898,0,0,0,0,0,0,0,0,0,0,0,0,0,-3.2643,-3.2647,-3.2842,-3.2843,-3.2844,-3.291,-3.2911,-3.2912,-3.2828,-3.2824,-3.282,-3.2817,-3.2887,-3.2893,-3.2898,0,0,0,0,0,0,0,0,0,0,0,0,0,-3.2722,-3.2649,-3.2842,-3.281,-3.2808,-3.291,-3.2911,-3.2912,-3.2829,-3.2824,-3.282,-3.2815,-3.2885,-3.2892,-3.2899,-3.3036,0,0,-3.2921,-3.2924,0,0,0,0,0,0,0,0,-3.2718,-3.273,-3.2814,-3.2812,-3.281,-3.2856,-3.2866,-3.2954,-3.283,-3.2821,-3.2818,-3.2813,-3.2881,-3.2889,-3.2911,-3.3039,-3.3042,-3.2922,-3.2926,-3.2929,-3.2931,0,0,0,0,0,0,0,-3.2712,-3.2726,-3.2869,-3.2815,-3.2813,-3.2793,-3.2799,-3.2882,-3.2876,-3.2821,-3.2815,-3.2825,-3.2879,-3.2905,-3.2912,-3.3043,-3.2921,-3.2928,-3.2932,-3.2935,-3.3289,-3.3294,0,0,0,0,0,0,-3.271,-3.2722,-3.2867,-3.2871,-3.2752,-3.2801,-3.2807,-3.2846,-3.2875,-3.2875,-3.2828,-3.282,-3.2895,-3.2904,-3.2915,-3.3077,-3.2929,-3.2936,-3.294,-3.3284,-3.329,-3.3296,0,0,0,0,0,0,-3.2706,-3.2724,-3.2864,-3.2795,-3.2811,-3.2809,-3.2853,-3.2849,-3.2874,-3.2881,-3.2879,-3.2855,-3.2892,-3.2905,-3.3007,-3.3078,-3.2939,-3.2945,-3.3278,-3.3286,-3.3293,-3.3403,0,0,0,0,0,0,-3.2701,-3.2723,-3.2774,-3.2797,-3.2815,-3.2955,-3.2857,-3.2854,-3.2887,-3.2877,-3.2905,-3.2906,-3.2889,-3.2997,-3.3014,-3.3086,-3.2951,-3.3271,-3.3281,-3.329,-3.3393,-3.3414,-3.3432,0,0,0,0,0,-3.2694,-3.2802,-3.2777,-3.2795,-3.2879,-3.2959,-3.2969,-3.2948,-3.2893,-3.2945,-3.2949,-3.2905,-3.3069,-3.3008,-3.3026,-3.3102,-3.3267,-3.3278,-3.329,-3.3385,-3.341,-3.3431,0,0,0,0,0,0,-3.2787,-3.2805,-3.2777,-3.2895,-3.2926,-3.2944,-3.3008,-3.2975,-3.3022,-3.3011,-3.2983,-3.299,-3.3099,-3.3111,-3.3043,-3.3237,-3.3159,-3.3174,-3.3225,-3.3249,-3.3267,-3.3261,-3.2957,0,0,0,0,0,-3.2822,-3.2885,-3.2897,-3.3,-3.3017,-3.3011,-3.3045,-3.3026,-3.3057,-3.3069,-3.3081,-3.3113,-3.3172,-3.3211,-3.3266,-3.3396,-3.3401,-3.3457,-3.3476,-3.3492,-3.3505,-3.3576,-3.3601,-3.3333,-3.3333,-3.3333,0,0,-3.2893,-3.2911,-3.2952,-3.3019,-3.3041,-3.3107,-3.3022,-3.3095,-3.3145,-3.308,-3.3177,-3.3188,-3.3222,-3.3339,-3.3392,-3.3352,-3.3581,-3.3507,-3.3519,-3.3524,-3.3591,-3.3616,-3.3639,-3.3341,-3.334,-3.3339,0,0,-3.3057,-3.3077,-3.3165,-3.319,-3.3224,-3.322,-3.3242,-3.3266,-3.327,-3.3367,-3.3321,-3.338,-3.3482,-3.3508,-3.3535,-3.3714,-3.3675,-3.3733,-3.3832,-3.3902,-3.3923,-3.3941,-3.4005,-3.4028,-3.3747,-3.3747,-3.3747,0,-3.3141,-3.3239,-3.3215,-3.3293,-3.3324,-3.3271,-3.3361,-3.3386,-3.3437,-3.346,-3.3416,-3.3544,-3.3564,-3.3687,-3.3731,-3.3755,-3.3779,-3.3728,-3.3922,-3.394,-3.3957,-3.4017,-3.4041,-3.3754,-3.3753,-3.3752,-3.3752,0,-3.3341,-3.341,-3.3478,-3.3528,-3.3568,-3.3652,-3.3642,-3.3686,-3.3665,-3.3666,-3.3767,-3.3789,-3.3847,-3.3876,-3.3855,-3.3997,-3.3972,-3.3926,-3.3846,-3.399,-3.4046,-3.4069,-3.3763,-3.3761,-3.3759,-3.3757,0,0,-3.3561,-3.3601,-3.3626,-3.3649,-3.3685,-3.3738,-3.3821,-3.3879,-3.3917,-3.3955,-3.4024,-3.4113,-3.4071,-3.4102,-3.4085,-3.4146,-3.4287,-3.4092,-3.4093,-3.4127,-3.4445,-3.4479,-3.4506,-3.4263,-3.4267,-3.4271,-3.4442,0,-3.3725,-3.3866,-3.385,-3.3986,-3.405,-3.4002,-3.4074,-3.4105,-3.4109,-3.4165,-3.417,-3.4233,-3.4173,-3.4192,-3.4251,-3.4258,-3.435,-3.4245,-3.4327,-3.433,-3.4318,-3.4535,-3.4571,-3.4731,-3.4464,-3.4468,-3.4471,0,-3.3933,-3.398,-3.4122,-3.4151,-3.4177,-3.4242,-3.4295,-3.4349,-3.4384,-3.4383,-3.4419,-3.4393,-3.4477,-3.4398,-3.4515,-3.4443,-3.4476,-3.4486,-3.4491,-3.4496,-3.4407,-3.4546,-3.4782,-3.4806,-3.4505,-3.4502,-3.45,0,-3.4079,-3.4178,-3.4276,-3.4297,-3.4333,-3.438,-3.4398,-3.4428,-3.4465,-3.4512,-3.4536,-3.4592,-3.4623,-3.4668,-3.4658,-3.4601,-3.4777,-3.4697,-3.4779,-3.4779,-3.4816,-3.4813,-3.506,-3.484,-3.484,-3.4839,-3.4839,0,-3.4262,-3.4351,-3.4342,-3.4402,-3.4501,-3.4483,-3.4582,-3.4593,-3.4622,-3.4684,-3.4648,-3.4707,-3.4691,-3.4751,-3.4744,-3.4842,-3.4856,-3.4858,-3.4855,-3.4861,-3.486,-3.488,-3.4868,-3.4846,-3.4844,-3.4843,-3.4842,0,-3.444,-3.4437,-3.4541,-3.4568,-3.4577,-3.4649,-3.4672,-3.473,-3.4733,-3.4813,-3.4831,-3.4835,-3.4904,-3.4899,-3.4977,-3.4972,-3.5093,-3.5077,-3.5081,-3.5077,-3.5159,-3.5151,-3.5425,-3.546,-3.522,-3.5222,-3.5224,0,-3.4555,-3.4623,-3.4658,-3.4697,-3.4718,-3.4782,-3.482,-3.4806,-3.4847,-3.4894,-3.4947,-3.5012,-3.5063,-3.5176,-3.5187,-3.5247,-3.5231,-3.5324,-3.524,-3.5244,-3.5232,-3.5227,-3.5234,-3.5339,-3.5342,-3.5344,-3.5346,0,-3.4761,-3.4758,-3.4813,-3.487,-3.4916,-3.496,-3.5,-3.5035,-3.5025,-3.5074,-3.5144,-3.5184,-3.5265,-3.5331,-3.5388,-3.5407,-3.5376,-3.5373,-3.5395,-3.54,-3.5399,-3.54,-3.5124,-3.5366,-3.5364,-3.5362,-3.5361,-3.536,-3.491,-3.4969,-3.5003,-3.5067,-3.5097,-3.5136,-3.5192,-3.5203,-3.5261,-3.5325,-3.5314,-3.5393,-3.543,-3.5504,-3.5529,-3.5591,-3.5558,-3.559,-3.5598,-3.5605,-3.5614,-3.5391,-3.5602,-3.5601,-3.5601,-3.56,-3.56,0,-3.5113,-3.5134,-3.5193,-3.5251,-3.5303,-3.527,-3.5314,-3.5359,-3.5429,-3.5466,-3.5518,-3.56,-3.5665,-3.5682,-3.5745,-3.5792,-3.5779,-3.5809,-3.5804,-3.5809,-3.5641,-3.5615,-3.5818,-3.5818,-3.5818,-3.5818,-3.5818,-3.5818,-3.5224,-3.5322,-3.5323,-3.5436,-3.5456,-3.5533,-3.5561,-3.5598,-3.5627,-3.5721,-3.5774,-3.5786,-3.5816,-3.5881,-3.594,-3.5943,-3.5968,-3.6003,-3.6001,-3.5843,-3.5821,-3.58,-3.5775,-3.6009,-3.6009,-3.6164,-3.6165,-3.6166]},{"header":{"parameterUnit":"m.s-1","parameterCategory":1,"la1":30.2991,"la2":30.254,"lo1":-89.0895,"lo2":-89.0444,"dy":0.0017,"dx":0.0017,"nx":28,"ny":28,"refTime":"2023-10-27T03:00:00:Z","depth":0,"parameterNumber":3,"parameterNumberName":"V-component_of_WINDS"},"data":[0,0,0,0,0,0,0,0,0,0,0,0,0,0,0,0,0,0,0,0,0,0,0,0,0,0,0,0,0,0,0,0,0,0,0,0,0,0,0,0,0,0,0,0,0,0,0,0,0,0,0,0,0,0,0,0,0,0,0.9207,0.9206,0,0.9184,0.9184,0.9183,0.91,0.9098,0.9096,0.9094,0.907,0.9071,0.9072,0,0,0,0,0,0,0,0,0,0,0,0,0,0.918,0.918,0.9207,0.9206,0.9206,0.9184,0.9184,0.9183,0.91,0.9098,0.9096,0.9094,0.907,0.9071,0.9072,0,0,0,0,0,0,0,0,0,0,0,0,0,0.9178,0.9181,0.9207,0.9162,0.9158,0.9184,0.9184,0.9183,0.9101,0.9098,0.9095,0.9092,0.9069,0.9071,0.9072,0.9139,0,0,0.9077,0.9078,0,0,0,0,0,0,0,0,0.9178,0.9179,0.9169,0.9165,0.916,0.9142,0.9165,0.9169,0.9101,0.9122,0.9094,0.9091,0.9096,0.9095,0.9097,0.9138,0.9137,0.9078,0.9079,0.9079,0.908,0,0,0,0,0,0,0,0.9178,0.9179,0.9198,0.9169,0.9164,0.9144,0.914,0.9165,0.9125,0.912,0.9114,0.9113,0.9093,0.9096,0.9096,0.9137,0.9078,0.9079,0.908,0.9081,0.9235,0.9238,0,0,0,0,0,0,0.9184,0.918,0.9198,0.9197,0.9162,0.9146,0.9143,0.9151,0.9125,0.9118,0.9115,0.9109,0.9094,0.9094,0.9095,0.9174,0.9079,0.9081,0.9082,0.9232,0.9236,0.924,0,0,0,0,0,0,0.9184,0.9187,0.9199,0.9187,0.9187,0.915,0.916,0.9152,0.9154,0.9121,0.9113,0.9125,0.9092,0.9093,0.913,0.9172,0.9082,0.9083,0.9229,0.9234,0.9238,0.9331,0,0,0,0,0,0,0.9184,0.9187,0.9212,0.9188,0.9188,0.9234,0.9162,0.9153,0.9158,0.9149,0.9128,0.9122,0.909,0.9128,0.9132,0.9172,0.9084,0.9225,0.9231,0.9236,0.9324,0.9339,0.9351,0,0,0,0,0,0.9183,0.9238,0.9213,0.9216,0.9218,0.9237,0.9237,0.9199,0.9161,0.9186,0.9165,0.9123,0.9167,0.9132,0.9136,0.9178,0.9222,0.9229,0.9236,0.9318,0.9336,0.9351,0,0,0,0,0,0,0.9266,0.9234,0.9206,0.9255,0.925,0.9223,0.9253,0.9218,0.9223,0.9214,0.9167,0.9163,0.9208,0.9196,0.9159,0.9243,0.9187,0.9196,0.9249,0.9265,0.9278,0.928,0.9086,0,0,0,0,0,0.9291,0.9309,0.9279,0.9325,0.9324,0.929,0.9296,0.9268,0.926,0.9257,0.9239,0.9233,0.9246,0.9255,0.9264,0.9323,0.9318,0.9353,0.9367,0.9378,0.9385,0.9418,0.9434,0.9263,0.9262,0.9262,0,0,0.934,0.9325,0.9339,0.9342,0.9334,0.9355,0.9288,0.9312,0.9327,0.926,0.9295,0.9282,0.9273,0.9322,0.9342,0.9313,0.9432,0.9387,0.9396,0.9397,0.9427,0.9443,0.9458,0.9267,0.9266,0.9266,0,0,0.9441,0.9431,0.947,0.9464,0.9454,0.9432,0.9441,0.9421,0.941,0.9444,0.9396,0.9414,0.9436,0.9432,0.9433,0.9538,0.95,0.9542,0.9611,0.9644,0.9657,0.9669,0.9708,0.9723,0.955,0.955,0.955,0,0.9504,0.9533,0.9493,0.9522,0.9526,0.9468,0.9508,0.9505,0.9498,0.9503,0.9471,0.95,0.9489,0.9538,0.9564,0.9566,0.9576,0.9544,0.9659,0.967,0.9681,0.9718,0.9732,0.9555,0.9555,0.9554,0.9554,0,0.9612,0.9634,0.9666,0.9664,0.9671,0.9705,0.9671,0.9683,0.9656,0.9637,0.9674,0.966,0.9667,0.9677,0.9649,0.9723,0.9706,0.9667,0.961,0.9703,0.9737,0.9751,0.9563,0.9561,0.9559,0.9558,0,0,0.9762,0.974,0.9753,0.9753,0.974,0.9756,0.9788,0.9796,0.9809,0.9808,0.9835,0.9857,0.9822,0.9824,0.9795,0.9824,0.9911,0.9782,0.9781,0.9808,0.9994,1.0024,1.0041,0.9886,0.9888,0.989,0.9996,0,0.986,0.9914,0.9881,0.9941,0.9962,0.991,0.9938,0.9934,0.9919,0.9934,0.9916,0.9934,0.9886,0.9887,0.9913,0.9895,0.9948,0.9887,0.9912,0.9913,0.9916,1.0058,1.0089,1.0188,1.0008,1.0011,1.0012,0,0.998,0.9987,1.0049,1.0036,1.0043,1.0069,1.0076,1.0092,1.0087,1.0073,1.0077,1.0043,1.0075,1.002,1.0065,1.0024,1.0033,1.0026,1.0029,1.003,0.9968,1.0064,1.0219,1.0235,1.0032,1.0031,1.0029,0,1.0086,1.011,1.0151,1.0152,1.0137,1.0157,1.0151,1.0144,1.0152,1.0159,1.0164,1.0173,1.0179,1.0188,1.0158,1.012,1.0208,1.0149,1.0198,1.0199,1.0219,1.0218,1.0378,1.0223,1.0223,1.0223,1.0222,0,1.0198,1.0239,1.0199,1.0224,1.0269,1.0232,1.0277,1.0266,1.0261,1.0284,1.0239,1.0262,1.0221,1.024,1.0217,1.0259,1.0261,1.0252,1.0245,1.0256,1.0258,1.0261,1.0254,1.0227,1.0226,1.0225,1.0224,0,1.0323,1.0298,1.034,1.0323,1.032,1.0354,1.034,1.0364,1.0346,1.0376,1.0381,1.0354,1.0375,1.0346,1.0362,1.0347,1.0406,1.0388,1.0408,1.0403,1.0455,1.0451,1.0623,1.0645,1.0476,1.0477,1.0479,0,1.0397,1.0427,1.0415,1.0428,1.0426,1.0447,1.0456,1.0422,1.0433,1.0433,1.0457,1.0474,1.0486,1.0522,1.0504,1.0517,1.05,1.056,1.0502,1.0513,1.0503,1.0502,1.0506,1.0572,1.0574,1.0575,1.0577,0,1.0531,1.0518,1.0533,1.0546,1.0559,1.0566,1.057,1.0584,1.0548,1.0564,1.0585,1.0595,1.0614,1.0632,1.0642,1.0636,1.0602,1.0596,1.0608,1.062,1.0631,1.0627,1.0441,1.0592,1.059,1.0589,1.0588,1.0588,1.0633,1.0659,1.0656,1.0675,1.0676,1.0682,1.0704,1.0691,1.0709,1.0722,1.0701,1.0729,1.0727,1.0736,1.0736,1.0758,1.0732,1.0749,1.0754,1.0759,1.0768,1.0628,1.0759,1.0758,1.0758,1.0758,1.0757,0,1.0766,1.0762,1.0781,1.079,1.0806,1.0774,1.0778,1.0794,1.0819,1.082,1.0834,1.0861,1.0879,1.0864,1.088,1.0901,1.0886,1.0906,1.0905,1.0905,1.0789,1.0777,1.0919,1.0919,1.0919,1.0919,1.0919,1.0918,1.0837,1.088,1.0868,1.0912,1.0908,1.0936,1.0941,1.0948,1.0949,1.0981,1.0997,1.0988,1.0983,1.0999,1.1015,1.1011,1.1019,1.1046,1.1036,1.0928,1.0912,1.0897,1.0886,1.1048,1.1048,1.1149,1.115,1.1151]}]]